STARLINK-35970, 66618

Orbit data source: Space-Track

STARLINK-35970, 66618 is a payload satellite owned by SpaceX/Seattle (US) in LEO that was launched on Sun, 23 Nov 2025 UTC via an FALCON 9 launch vehicle from the Air Force Western Test Range (AFWTR). Payload-class satellites include a variety of spacecraft equipped with specific instruments for various scientific and technological missions. These include communications satellites like Starlink; space stations such as the ISS; scientific satellites like the Hubble; Earth observation satellites from companies like Planet Labs, Umbra, and HawkEye 360; GPS; miniature CubeSats for education and research; and military/defense satellites.

Loading next visibility...
Identifier
66618, 2025-271B
Orbit
LEO
Country
Flag of USUS
Related business
Manufacturer
SpaceX/Seattle
Mission
Operational Commercial Communications
Bus & Motor
STARLINK V2MO, Unknown motor
Mass
575 kg wet, ~530 kg dry
Launch date (UTC)
2025-11-23 (5 months ago)
Launch vehicle
FALCON 9
Launch site
Air Force Western Test Range (AFWTR)
Object type
Payload
Rocket body
Debris
Shape & HBR
Box + 2 Pan, 17.7 m
Radar Cross Section
36.964 m²

Expand to show TLE details & history
Last TLE update: 20 hours ago

TLE from 20 hours ago
0 STARLINK-35970
1 66618U 25271B   26127.68749581  .00023349  00000-0  79758-3 0  9990
2 66618  53.1575 225.5936 0001139  72.3229 287.7896 15.30217068 26600
Epoch: 2026-05-07T16:29Z
TLE epoch observation values (Epoch: 2026-05-07T16:29:59.637Z)
Latitude
-0.00005°
Longitude
112.56502°
Altitude
475.825 km
Speed
7.629 km/s
True Right ascension
15h 02m 22s
True Declination
0° 00' 00"
Sunlit
Object was in full shadow at epoch
Visualization orbit readout
Latitude
Unknown
Longitude
Unknown
Altitude
Unknown
Speed
Unknown
Apparent Right ascension
Unknown
Apparent Declination
Unknown
Sunlit
N/A
Visualization observer readout
Local Sidereal Time
20:52:58
Azimuth
Unknown
Elevation
Unknown
Doppler factor
Unknown
Orbital elements
Apogee altitude
476.202 km
Perigee altitude
474.64 km
Semi-major axis
6,853.558 km
Eccentricity
0.00011
Inclination
53.1575°
RAAN
225.5936°
Arg. of periapsis
72.3229°
True anomaly
287.77717°
Mean anomaly
287.7896°
Eccentric anomaly
287.78339°
Mean motion
3.82533 °/min
Orbital period
94.11 mins
BSTAR
0.00079758
Loading maneuver chart data...
Computing Atmospheric mass density...
Loading historical data...
Loading historical data...
Loading historical data...
Loading historical data...
Loading historical data...
Loading historical data...
Loading historical data...

Documentation

Showing up to 5 results
|